Flag for U.S.A. Weather past 2 weeks in Lexington, North Carolina, U.S.A.

Now
52 °F

Drizzle. Low clouds.


Feels Like: 52 °F
Forecast: 42 / 51 °F
Wind: No wind

Location: Davidson County Airport

Current Time: Dec 29, 2014 at 4:05:47 AM

Latest Report: Dec 29, 2014 at 3:35 AM


Visibility: 2 mi

Pressure: 30.04 "Hg

Humidity: 99%

Dew point: 52 °F

Location of LexingtonLocation

Historic Weather in Lexington — Graph

°F

Lexington temperature yesterday

Maximum temperature yesterday: 63 °F (at 1:35 PM)
Minimum temperature yesterday: 48 °F (at 11:55 PM)
Average temperature yesterday: 54 °F

Past Weeks' High & Low Weather Summary

 TemperatureHumidityPressure
High64 °F (Dec 27, 2:55 PM)99% (Dec 23, 5:15 PM)30.36 "Hg (Dec 23, 5:15 PM)
Low27 °F (Dec 26, 7:35 AM)24% (Dec 14, 2:55 PM)29.65 "Hg (Dec 24, 6:15 PM)
Average44 °F75%30.10 "Hg
* Reported Dec 14 2:15 AM — Dec 29 2:55 AM, Lexington, Weather by CustomWeather, © 2014

Note: Actual official high and low records may vary slightly from our data, if they occured in-between our weather recording intervals... More about our weather records

Advertising

Lexington weather history for previous 24 hours

 ConditionsComfort  
Time TempWeatherWind HumidityBarometerVisibility
2:55 AM
Dec 29
52 °FLight rain. Low clouds.No wind98%30.07 "Hg1 mi
2:35 AM50 °FLight rain. Low clouds.No wind99%30.05 "Hg1 mi
2:15 AM51 °FLight rain. Low clouds.No wind99%30.05 "Hg1 mi
1:55 AM50 °FFog.No wind98%30.05 "Hg0 mi
1:35 AM49 °FFog.No wind99%30.06 "Hg0 mi
1:15 AM49 °FFog.No wind99%30.05 "Hg0 mi
12:55 AM49 °FFog.No wind99%30.06 "Hg1 mi
12:35 AM49 °FFog.No wind99%30.05 "Hg1 mi
12:15 AM48 °FFog.No wind99%30.06 "Hg0 mi
11:55 PM
Dec 28
48 °FFog.No wind99%30.06 "Hg0 mi
11:15 PM49 °FFog.No wind99%30.07 "Hg1 mi
10:55 PM51 °FFog.No wind98%30.08 "Hg0 mi
10:15 PM49 °FFog.No wind98%30.07 "Hg0 mi
9:55 PM51 °FFog.No wind97%30.07 "Hg5 mi
9:15 PM51 °FFog.No wind98%30.07 "Hg4 mi
8:55 PM51 °FFog.No wind98%30.06 "Hg2 mi
8:35 PM52 °FFog.No wind97%30.06 "Hg5 mi
8:15 PM53 °FPassing clouds.No wind97%30.06 "Hg10 mi
7:55 PM54 °FClear.No wind96%30.05 "Hg10 mi
7:35 PM55 °FClear.No wind94%30.04 "Hg10 mi
7:15 PM56 °FClear.No wind91%30.04 "Hg10 mi
6:55 PM57 °FPassing clouds.No wind89%30.03 "Hg10 mi
6:35 PM57 °FPassing clouds.No wind88%30.03 "Hg10 mi
6:15 PM58 °FPassing clouds.No wind87%30.03 "Hg10 mi
5:55 PM58 °FPassing clouds.No wind86%30.02 "Hg10 mi
5:35 PM58 °FPassing clouds.No wind84%30.02 "Hg10 mi
5:15 PM59 °FClear.No wind83%30.01 "Hg10 mi
4:35 PM61 °FPartly sunny.No wind78%30.02 "Hg10 mi
4:15 PM61 °FOvercast.No wind78%30.02 "Hg10 mi
3:55 PM61 °FOvercast.No wind77%30.01 "Hg10 mi
3:35 PM61 °FOvercast.3 mph77%30.01 "Hg10 mi
3:15 PM61 °FOvercast.5 mph76%30.00 "Hg10 mi
2:55 PM62 °FOvercast.5 mph74%29.99 "Hg10 mi
2:35 PM63 °FOvercast.6 mph70%29.98 "Hg10 mi
2:15 PM63 °FOvercast.5 mph69%29.98 "Hg10 mi
1:55 PM62 °FOvercast.5 mph71%29.98 "Hg10 mi
1:35 PM63 °FMostly cloudy.10 mph69%29.98 "Hg10 mi
1:15 PM61 °FOvercast.8 mph74%29.98 "Hg10 mi
12:55 PM61 °FMostly cloudy.6 mph78%29.99 "Hg10 mi
12:35 PM61 °FMore clouds than sun.5 mph78%30.00 "Hg10 mi
12:15 PM58 °FOvercast.5 mph85%30.01 "Hg10 mi
11:55 AM58 °FOvercast.3 mph85%30.03 "Hg10 mi
11:15 AM58 °FOvercast.5 mph85%30.06 "Hg10 mi
10:55 AM56 °FOvercast.5 mph86%30.06 "Hg10 mi
10:35 AM55 °FOvercast.3 mph84%30.07 "Hg10 mi
10:15 AM54 °FOvercast.No wind84%30.08 "Hg10 mi
9:55 AM54 °FOvercast.No wind83%30.08 "Hg10 mi
9:35 AM54 °FLight rain. Overcast.3 mph81%30.08 "Hg10 mi
9:15 AM54 °FOvercast.No wind80%30.08 "Hg10 mi
8:55 AM54 °FOvercast.6 mph79%30.08 "Hg10 mi
8:15 AM53 °FOvercast.5 mph79%30.06 "Hg10 mi
7:55 AM53 °FPartly sunny.6 mph76%30.06 "Hg10 mi
7:35 AM52 °FSunny.5 mph78%30.06 "Hg10 mi
7:15 AM52 °FClear.5 mph77%30.04 "Hg10 mi
6:55 AM51 °FClear.3 mph77%30.05 "Hg10 mi
6:15 AM51 °FClear.6 mph75%30.05 "Hg10 mi
5:55 AM50 °FClear.5 mph78%30.06 "Hg10 mi
5:35 AM49 °FPassing clouds.3 mph79%30.06 "Hg10 mi
5:15 AM49 °FRain. Partly cloudy.No wind83%30.06 "Hg10 mi
4:55 AM50 °FLight rain. Passing clouds.No wind71%30.06 "Hg10 mi
4:35 AM50 °FPassing clouds.3 mph71%30.06 "Hg10 mi
4:15 AM49 °FPassing clouds.5 mph71%30.08 "Hg10 mi
Weather by CustomWeather, © 2014

See weather overviewHow to use our weather pages